Location: Newark
(15.4608°S, 41.1635°W)
Time: 00:51:49
(UTC+00:00)

Altair - Visible Passes

Search period start: 31 July 2021 00:00
Search period end: 10 August 2021 00:00
Orbit: 1502 x 1682 km, 47.2° (Epoch: 30 July)

Date Brightness Start Highest point End Pass type
(mag) Time Alt. Az. Time Alt. Az. Time Alt. Az.
31 Jul 9.0 21:24:52 10° S 21:30:01 15° SSE 21:33:19 13° SE visible
31 Jul 8.8 23:27:00 10° SSW 23:31:22 28° SSW 23:31:22 28° SSW visible
01 Aug 9.1 21:00:01 10° S 21:04:31 13° SSE 21:09:00 10° SE visible
01 Aug 8.3 23:01:52 10° SSW 23:08:09 37° S 23:08:09 37° S visible
02 Aug 8.0 22:36:45 10° SSW 22:45:03 42° SSE 22:45:03 42° SSE visible
03 Aug 9.5 00:41:37 10° WSW 00:43:08 15° WSW 00:43:08 15° WSW visible
03 Aug 7.9 22:11:39 10° SSW 22:21:02 40° SE 22:22:05 39° SE visible
04 Aug 9.0 00:16:13 10° SW 00:20:11 26° WSW 00:20:11 26° WSW visible
04 Aug 8.1 21:46:34 10° SSW 21:55:44 37° SE 21:59:19 29° ESE visible
04 Aug 8.4 23:50:52 10° SW 23:57:25 43° WSW 23:57:25 43° WSW visible
05 Aug 8.2 21:21:30 10° SSW 21:30:25 33° SE 21:36:44 18° E visible
05 Aug 7.8 23:25:33 10° SW 23:34:53 64° WNW 23:34:53 64° WNW visible
06 Aug 8.4 20:56:27 10° SSW 21:05:05 30° SE 21:13:34 10° E visible
06 Aug 7.6 23:00:16 10° SW 23:10:25 73° NW 23:12:35 58° N visible
07 Aug 7.6 22:35:01 10° SW 22:45:13 80° NW 22:50:38 32° NNE visible
08 Aug 9.6 00:44:19 10° W 00:48:50 15° WNW 00:48:50 15° WNW visible
08 Aug 7.6 22:09:46 10° SW 22:20:01 88° NW 22:29:09 13° NE visible
09 Aug 9.5 00:18:10 10° W 00:24:15 18° NW 00:27:23 15° NNW visible
09 Aug 7.6 21:44:33 10° SW 21:54:48 85° SE 22:04:50 10° NE visible
